SRR25Q ZSHC-KRFD

Flight info

Callsign SRR25Q
Flight time N/A
Altitude 31100
Route OKTUG9D OKTUG B221 NINAS G327 LAMEN/N0497F310 A593 SADLI Y590 ELGEP B576 SOSDO Y571 PSN A586 TENAS/N0490F330 B467 KANSU/K0906F330 B467 NULAR L771 DITOR T575 PITUG/K0885F350 T575 BAMOL B931 GIRLO N222 VALDA/N0474F350 H222 ICEEE R338 OME J122 GAL NCA19 CHAPO DCT 63N130W/N0480F370 DCT YFS J521 YSM DCT PETMA Q963 YVC Q919 KENRU Q906 OTLUR Q834 DLH J538 DLL DCT KINZI ALEXS1
Aircraft B77L/H-SDE1E2E3FGHIJ2J3J4J5M1RWXY/LB1D1

Departure

Time N/A
Airport Hangzhou Xiaoshan International Airport (ZSHC)

Arrival

Time 2026-05-08 06:31
Airport Chicago Rockford International Airport (KRFD)
Time Latitude Longitude Altitude Speed Heading
2026-05-08 05:23 48.04686 -94.08889 36889 ft 520 kts 134°
2026-05-08 05:24 48.02198 -94.04966 36889 ft 520 kts 134°
2026-05-08 05:24 47.97216 -93.97130 36894 ft 520 kts 134°
2026-05-08 05:25 47.92225 -93.89302 36884 ft 520 kts 135°
2026-05-08 05:25 47.87236 -93.81501 36901 ft 520 kts 135°
2026-05-08 05:26 47.82240 -93.73712 36907 ft 520 kts 135°
2026-05-08 05:26 47.77234 -93.65930 36900 ft 520 kts 135°
2026-05-08 05:27 47.72224 -93.58165 36888 ft 520 kts 135°
2026-05-08 05:27 47.67211 -93.50418 36903 ft 520 kts 135°
2026-05-08 05:28 47.62192 -93.42686 36914 ft 520 kts 135°
2026-05-08 05:28 47.57197 -93.35011 36910 ft 521 kts 135°
2026-05-08 05:29 47.52160 -93.27292 36888 ft 521 kts 135°
2026-05-08 05:29 47.47108 -93.19599 36894 ft 522 kts 135°
2026-05-08 05:30 47.42019 -93.11925 36879 ft 522 kts 135°
2026-05-08 05:30 47.36932 -93.04276 36870 ft 522 kts 136°
2026-05-08 05:31 47.31833 -92.96622 36854 ft 522 kts 136°
2026-05-08 05:31 47.26738 -92.88991 36891 ft 522 kts 136°
2026-05-08 05:32 47.21627 -92.81359 36873 ft 523 kts 136°
2026-05-08 05:32 47.16515 -92.73747 36904 ft 523 kts 136°
2026-05-08 05:33 47.11432 -92.66201 36900 ft 523 kts 136°
2026-05-08 05:33 47.06318 -92.58631 36902 ft 523 kts 136°
2026-05-08 05:34 47.01192 -92.51066 36906 ft 523 kts 136°
2026-05-08 05:34 46.96064 -92.43518 36899 ft 523 kts 136°
2026-05-08 05:35 46.90919 -92.35965 36872 ft 524 kts 136°
2026-05-08 05:35 46.85772 -92.28430 36875 ft 524 kts 136°
2026-05-08 05:36 46.80421 -92.21214 36868 ft 523 kts 144°
2026-05-08 05:36 46.74369 -92.15456 36873 ft 519 kts 154°
2026-05-08 05:37 46.67997 -92.10474 36873 ft 519 kts 155°
2026-05-08 05:37 46.61679 -92.05527 36884 ft 519 kts 154°
2026-05-08 05:38 46.55323 -92.00505 36892 ft 520 kts 154°
2026-05-08 05:38 46.48970 -91.95471 36888 ft 520 kts 154°
2026-05-08 05:39 46.42612 -91.90444 36894 ft 520 kts 154°
2026-05-08 05:39 46.36242 -91.85425 36880 ft 521 kts 154°
2026-05-08 05:40 46.29879 -91.80426 36880 ft 520 kts 154°
2026-05-08 05:40 46.23510 -91.75438 36878 ft 521 kts 154°
2026-05-08 05:41 46.17177 -91.70489 36885 ft 521 kts 154°
2026-05-08 05:41 46.10794 -91.65515 36880 ft 520 kts 155°
2026-05-08 05:42 46.04416 -91.60559 36881 ft 520 kts 155°
2026-05-08 05:42 45.98034 -91.55612 36890 ft 521 kts 155°
2026-05-08 05:43 45.91648 -91.50675 36880 ft 521 kts 155°
2026-05-08 05:43 45.85260 -91.45749 36885 ft 521 kts 155°
2026-05-08 05:44 45.78875 -91.40839 36894 ft 521 kts 155°
2026-05-08 05:44 45.72523 -91.35966 36894 ft 520 kts 155°
2026-05-08 05:45 45.66149 -91.31090 36901 ft 520 kts 155°
2026-05-08 05:45 45.59768 -91.26221 36906 ft 519 kts 155°
2026-05-08 05:46 45.53391 -91.21368 36888 ft 519 kts 155°
2026-05-08 05:46 45.47013 -91.16526 36898 ft 519 kts 155°
2026-05-08 05:47 45.41704 -91.12506 36907 ft 520 kts 155°
2026-05-08 05:47 45.35313 -91.07678 36885 ft 521 kts 156°
2026-05-08 05:48 45.28914 -91.02856 36904 ft 521 kts 156°
2026-05-08 05:48 45.22498 -90.98033 36916 ft 522 kts 156°
2026-05-08 05:49 45.16068 -90.93212 36904 ft 523 kts 156°
2026-05-08 05:49 45.09638 -90.88404 36915 ft 523 kts 156°
2026-05-08 05:50 45.03197 -90.83600 36921 ft 524 kts 156°
2026-05-08 05:50 44.96747 -90.78801 36906 ft 524 kts 156°
2026-05-08 05:51 44.90298 -90.74016 36925 ft 524 kts 156°
2026-05-08 05:51 44.83843 -90.69238 36904 ft 524 kts 156°
2026-05-08 05:52 44.77372 -90.64461 36921 ft 525 kts 156°
2026-05-08 05:52 44.70950 -90.59732 36923 ft 525 kts 156°
2026-05-08 05:53 44.64475 -90.54975 36917 ft 525 kts 156°
2026-05-08 05:53 44.58001 -90.50231 36905 ft 524 kts 157°
2026-05-08 05:54 44.51535 -90.45505 36914 ft 524 kts 157°
2026-05-08 05:54 44.45070 -90.40793 36916 ft 524 kts 157°
2026-05-08 05:55 44.38599 -90.36087 36918 ft 524 kts 157°
2026-05-08 05:55 44.32129 -90.31395 36925 ft 525 kts 157°
2026-05-08 05:56 44.25640 -90.26700 36922 ft 525 kts 157°
2026-05-08 05:56 44.19140 -90.22009 36914 ft 526 kts 157°
2026-05-08 05:57 44.12637 -90.17327 36923 ft 526 kts 157°
2026-05-08 05:57 44.06121 -90.12648 36621 ft 532 kts 157°
2026-05-08 05:57 44.02798 -90.10271 35805 ft 537 kts 158°
2026-05-08 05:58 43.99527 -90.07929 35052 ft 536 kts 158°
2026-05-08 05:58 43.96209 -90.05554 34300 ft 537 kts 158°
2026-05-08 05:58 43.92907 -90.03192 33789 ft 531 kts 158°
2026-05-08 05:58 43.89643 -90.00860 33202 ft 526 kts 158°
2026-05-08 05:59 43.86404 -89.98550 32713 ft 520 kts 158°
2026-05-08 05:59 43.83196 -89.96266 32197 ft 515 kts 158°
2026-05-08 05:59 43.80029 -89.94016 31720 ft 510 kts 158°
2026-05-08 05:59 43.76883 -89.91784 31230 ft 505 kts 158°
2026-05-08 06:00 43.73773 -89.89580 30754 ft 500 kts 158°
2026-05-08 06:00 43.70687 -89.87395 30281 ft 496 kts 158°
2026-05-08 06:00 43.67625 -89.85231 29773 ft 492 kts 158°
2026-05-08 06:00 43.64588 -89.83086 29242 ft 488 kts 158°
2026-05-08 06:01 43.61583 -89.80965 28740 ft 483 kts 158°
2026-05-08 06:01 43.58595 -89.78952 28282 ft 471 kts 165°
2026-05-08 06:01 43.55501 -89.77767 27839 ft 452 kts 179°
2026-05-08 06:01 43.52416 -89.77478 27374 ft 437 kts 190°
2026-05-08 06:02 43.49454 -89.77911 26888 ft 417 kts 202°
2026-05-08 06:02 43.46686 -89.78793 26472 ft 412 kts 202°
2026-05-08 06:02 43.43897 -89.79666 26020 ft 410 kts 202°
2026-05-08 06:02 43.41119 -89.80515 25549 ft 408 kts 202°
2026-05-08 06:03 43.38356 -89.81346 25126 ft 405 kts 202°
2026-05-08 06:03 43.35614 -89.82163 24701 ft 403 kts 202°
2026-05-08 06:03 43.32878 -89.82974 24261 ft 401 kts 201°
2026-05-08 06:03 43.30161 -89.83776 23828 ft 399 kts 201°
2026-05-08 06:04 43.27457 -89.84574 23383 ft 397 kts 201°
2026-05-08 06:04 43.24759 -89.85368 22881 ft 395 kts 201°
2026-05-08 06:04 43.22078 -89.86155 22395 ft 392 kts 201°
2026-05-08 06:04 43.19424 -89.86932 21999 ft 388 kts 201°
2026-05-08 06:05 43.16789 -89.87704 21572 ft 385 kts 201°
2026-05-08 06:05 43.14171 -89.88473 21158 ft 383 kts 201°
2026-05-08 06:05 43.11608 -89.89225 20738 ft 381 kts 201°
2026-05-08 06:05 43.09020 -89.89983 20322 ft 379 kts 201°
2026-05-08 06:06 43.06447 -89.90737 19905 ft 378 kts 201°
2026-05-08 06:06 43.03881 -89.91488 19492 ft 376 kts 201°
2026-05-08 06:06 43.01320 -89.92236 19060 ft 375 kts 201°
2026-05-08 06:06 42.98775 -89.92979 18653 ft 374 kts 201°
2026-05-08 06:07 42.96235 -89.93720 18238 ft 372 kts 201°
2026-05-08 06:07 42.93705 -89.94459 17766 ft 371 kts 201°
2026-05-08 06:07 42.91183 -89.95192 17322 ft 370 kts 200°
2026-05-08 06:07 42.88677 -89.95902 16885 ft 368 kts 198°
2026-05-08 06:08 42.86083 -89.96184 16484 ft 380 kts 186°
2026-05-08 06:08 42.83420 -89.95813 16080 ft 390 kts 175°
2026-05-08 06:08 42.80761 -89.94897 15664 ft 395 kts 171°
2026-05-08 06:08 42.78109 -89.93878 15227 ft 397 kts 170°
2026-05-08 06:09 42.75448 -89.92843 14809 ft 399 kts 170°
2026-05-08 06:09 42.72771 -89.91810 14381 ft 399 kts 170°
2026-05-08 06:09 42.70093 -89.90788 13945 ft 400 kts 170°
2026-05-08 06:09 42.67445 -89.89788 13491 ft 400 kts 170°
2026-05-08 06:10 42.64758 -89.88781 13003 ft 400 kts 170°
2026-05-08 06:10 42.62079 -89.87782 12548 ft 399 kts 170°
2026-05-08 06:10 42.59403 -89.86787 12115 ft 397 kts 169°
2026-05-08 06:10 42.56739 -89.85799 11733 ft 394 kts 169°
2026-05-08 06:11 42.54099 -89.84820 11364 ft 392 kts 169°
2026-05-08 06:11 42.51475 -89.83847 10955 ft 390 kts 169°
2026-05-08 06:11 42.48865 -89.82882 10637 ft 386 kts 169°
2026-05-08 06:11 42.46326 -89.81939 10532 ft 370 kts 169°
2026-05-08 06:12 42.43899 -89.81037 10431 ft 354 kts 169°
2026-05-08 06:12 42.41574 -89.80177 10346 ft 339 kts 170°
2026-05-08 06:12 42.39345 -89.79355 10228 ft 324 kts 171°
2026-05-08 06:12 42.37212 -89.78570 10126 ft 311 kts 171°
2026-05-08 06:13 42.35166 -89.77817 10018 ft 299 kts 171°
2026-05-08 06:13 42.33192 -89.77091 9813 ft 290 kts 171°
2026-05-08 06:13 42.31263 -89.76383 9486 ft 286 kts 171°
2026-05-08 06:13 42.29357 -89.75673 9116 ft 282 kts 168°
2026-05-08 06:14 42.27652 -89.74378 8532 ft 296 kts 138°
2026-05-08 06:14 42.26600 -89.71991 8106 ft 300 kts 105°
2026-05-08 06:14 42.26362 -89.69231 7712 ft 293 kts 93°
2026-05-08 06:14 42.26205 -89.66479 7304 ft 293 kts 95°
2026-05-08 06:15 42.26024 -89.63782 7030 ft 286 kts 95°
2026-05-08 06:15 42.26138 -89.61196 6873 ft 274 kts 66°
2026-05-08 06:15 42.27137 -89.58995 6847 ft 281 kts 46°
2026-05-08 06:15 42.28395 -89.56911 6737 ft 290 kts 47°
2026-05-08 06:16 42.29658 -89.54796 6600 ft 287 kts 47°
2026-05-08 06:16 42.30900 -89.52709 6501 ft 283 kts 47°
2026-05-08 06:16 42.32122 -89.50657 6388 ft 278 kts 47°
2026-05-08 06:16 42.33333 -89.48623 6283 ft 277 kts 47°
2026-05-08 06:17 42.35744 -89.44566 6074 ft 276 kts 47°
2026-05-08 06:17 42.36943 -89.42544 5977 ft 276 kts 47°
2026-05-08 06:17 42.38144 -89.40517 5863 ft 276 kts 47°
2026-05-08 06:18 42.39346 -89.38487 5769 ft 276 kts 47°
2026-05-08 06:18 42.40531 -89.36484 5689 ft 277 kts 47°
2026-05-08 06:18 42.41732 -89.34451 5575 ft 276 kts 47°
2026-05-08 06:18 42.42930 -89.32422 5474 ft 275 kts 47°
2026-05-08 06:19 42.44121 -89.30403 5356 ft 274 kts 47°
2026-05-08 06:19 42.45307 -89.28391 5253 ft 273 kts 47°
2026-05-08 06:19 42.46489 -89.26384 5150 ft 271 kts 47°
2026-05-08 06:19 42.47659 -89.24394 5055 ft 270 kts 47°
2026-05-08 06:20 42.48824 -89.22414 4966 ft 268 kts 47°
2026-05-08 06:20 42.49985 -89.20441 4863 ft 267 kts 47°
2026-05-08 06:20 42.51141 -89.18474 4756 ft 266 kts 47°
2026-05-08 06:20 42.52290 -89.16518 4678 ft 265 kts 47°
2026-05-08 06:21 42.53436 -89.14565 4575 ft 264 kts 47°
2026-05-08 06:21 42.54484 -89.12546 4441 ft 262 kts 63°
2026-05-08 06:21 42.54777 -89.10098 4369 ft 271 kts 97°
2026-05-08 06:21 42.54107 -89.07761 4273 ft 262 kts 127°
2026-05-08 06:22 42.52989 -89.05911 4185 ft 247 kts 131°
2026-05-08 06:22 42.51905 -89.04168 4081 ft 238 kts 131°
2026-05-08 06:22 42.50845 -89.02464 4067 ft 235 kts 131°
2026-05-08 06:22 42.49784 -89.00762 3975 ft 238 kts 131°
2026-05-08 06:23 42.48730 -88.99072 3885 ft 237 kts 131°
2026-05-08 06:23 42.47672 -88.97372 3775 ft 235 kts 130°
2026-05-08 06:23 42.46623 -88.95683 3670 ft 233 kts 130°
2026-05-08 06:23 42.45580 -88.94004 3609 ft 233 kts 130°
2026-05-08 06:24 42.44535 -88.92321 3522 ft 233 kts 130°
2026-05-08 06:24 42.43493 -88.90643 3449 ft 233 kts 130°
2026-05-08 06:24 42.42454 -88.88970 3344 ft 232 kts 130°
2026-05-08 06:24 42.41420 -88.87308 3262 ft 230 kts 130°
2026-05-08 06:25 42.40391 -88.85653 3182 ft 230 kts 130°
2026-05-08 06:25 42.39361 -88.84003 3092 ft 228 kts 131°
2026-05-08 06:25 42.38113 -88.82777 2969 ft 219 kts 164°
2026-05-08 06:25 42.36654 -88.82737 2949 ft 207 kts 193°
2026-05-08 06:26 42.35253 -88.83166 2860 ft 206 kts 195°
2026-05-08 06:26 42.33854 -88.83599 2793 ft 206 kts 194°
2026-05-08 06:26 42.32454 -88.84035 2708 ft 206 kts 194°
2026-05-08 06:26 42.31054 -88.84473 2624 ft 207 kts 194°
2026-05-08 06:27 42.29668 -88.84907 2557 ft 206 kts 194°
2026-05-08 06:27 42.28319 -88.85515 2474 ft 204 kts 216°
2026-05-08 06:27 42.27487 -88.86979 2491 ft 197 kts 249°
2026-05-08 06:27 42.26929 -88.88700 2486 ft 203 kts 248°
2026-05-08 06:28 42.26337 -88.90437 2480 ft 201 kts 248°
2026-05-08 06:28 42.25767 -88.92106 2486 ft 191 kts 248°
2026-05-08 06:28 42.25222 -88.93712 2473 ft 186 kts 248°
2026-05-08 06:28 42.24680 -88.95312 2483 ft 188 kts 248°
2026-05-08 06:29 42.24146 -88.96887 2480 ft 178 kts 248°
2026-05-08 06:29 42.23646 -88.98363 2422 ft 170 kts 249°
2026-05-08 06:29 42.23160 -88.99810 2131 ft 165 kts 249°
2026-05-08 06:29 42.22695 -89.01182 1899 ft 156 kts 249°
2026-05-08 06:30 42.22256 -89.02483 1700 ft 155 kts 250°
2026-05-08 06:30 42.21815 -89.03792 1484 ft 151 kts 249°
2026-05-08 06:30 42.21385 -89.05060 1291 ft 147 kts 246°
2026-05-08 06:30 42.20953 -89.06293 1124 ft 145 kts 246°
2026-05-08 06:31 42.20534 -89.07528 959 ft 144 kts 246°
2026-05-08 06:31 42.20116 -89.08764 790 ft 146 kts 246°
2026-05-08 06:31 42.19714 -89.09951 739 ft 116 kts 245°
2026-05-08 06:31 42.19499 -89.10588 737 ft 49 kts 246°
2026-05-08 06:32 42.19453 -89.10799 736 ft 15 kts 293°
2026-05-08 06:32 42.19525 -89.10829 734 ft 11 kts 28°
2026-05-08 06:32 42.19570 -89.10742 736 ft 11 kts 64°
2026-05-08 06:32 42.19606 -89.10634 737 ft 15 kts 66°
2026-05-08 06:33 42.19654 -89.10492 739 ft 19 kts 65°
2026-05-08 06:33 42.19714 -89.10315 739 ft 23 kts 66°
2026-05-08 06:33 42.19785 -89.10106 740 ft 24 kts 65°
2026-05-08 06:33 42.19822 -89.09974 740 ft 9 kts 88°
2026-05-08 06:34 42.19781 -89.09888 738 ft 13 kts 127°
2026-05-08 06:34 42.19726 -89.09769 740 ft 18 kts 123°
2026-05-08 06:34 42.19645 -89.09614 739 ft 22 kts 124°
2026-05-08 06:34 42.19549 -89.09427 740 ft 26 kts 125°
2026-05-08 06:35 42.19462 -89.09266 744 ft 15 kts 128°
2026-05-08 06:35 42.19400 -89.09251 743 ft 5 kts 223°
2026-05-08 06:35 42.19397 -89.09338 740 ft 13 kts 292°
2026-05-08 06:35 42.19446 -89.09443 740 ft 13 kts 304°
2026-05-08 06:36 42.19468 -89.09554 740 ft 14 kts 276°
2026-05-08 06:36 42.19462 -89.09640 738 ft 4 kts 218°
2026-05-08 06:36 42.19440 -89.09648 739 ft 7 kts 190°
2026-05-08 06:36 42.19397 -89.09655 740 ft 6 kts 185°
2026-05-08 06:37 42.19380 -89.09657 739 ft 0 kts 185°